Back to catalog

TIMATION 1

AliveNavigationLEO
NORAD 2847·PAYLOAD·🇺🇸 United States

Launched May 31, 1967 from Vandenberg Space Force Base

Loading…

Next Passes (next 24 hours)

TLE

FreshSource: Space-Track

Epoch: Sep 14, 2026, 14:46 UTC

1 02847U 67053E   26257.61590003  .00000039  00000-0  59757-4 0  9997
2 02847  69.9674  13.4498 0008938 298.1513  61.8692 14.03010104 26330

Track TIMATION 1 in real time with AllMySat

Download on the App Store